Wind_Gust
13 14 14 14 12 11 10 14 14 14 8 9 9 6 20 9 14 21 20 17 14 8 8 13 17 15 17 22 27 18 13 19 10 26 20 15 21 24 26 26 24 23 25 20 17 17 17 19 22 24 23 25 25 24 23 23 23 22 22 22 21 20 19 18 18 17 17 17 17 17 17 17 17 17 17 17 16 16 16 16 16 17 17 18 19 18 17 17 16 16 16 16 15 14 13 11 10
11 12 12 13 11 8 10 7 12 6 8 9 15 9 16 20 15 20 17 13 6 11 9 28 33 32 32 26 24 25 19 11 9 19 19 22 22 23 23 26 26 26 21 21 18 17 15 19 21 22 25 26 24 24 24 23 23 23 23 23 22 21 20 18 18 18 18 17 17 17 17 17 18 17 17 17 15 15 15 15 16 16 17 17 18 17 16 15 15 15 15 15 15 14 13 11 10
9 12 14 14 8 10 8 8 11 5 7 10 15 14 14 18 20 18 13 11 9 10 18 23 24 22 19 14 13 14 7 7 22 21 25 23 29 17 21 23 24 25 24 20 18 17 15 16 20 22 25 25 24 24 24 23 22 23 24 22 22 22 20 19 18 17 17 17 17 17 17 17 17 17 17 16 15 15 14 14 16 15 15 16 16 16 15 14 14 14 14 14 14 13 12 10 10
6 3 6 7 12 9 6 8 5 8 11 12 17 12 19 20 23 16 11 16 12 8 12 13 19 11 19 22 19 19 18 15 12 26 32 24 24 25 23 22 21 21 20 21 18 16 15 19 20 23 25 24 24 24 24 23 23 24 23 22 22 21 19 18 18 18 17 17 17 17 17 17 16 17 17 16 16 15 13 13 14 15 14 14 15 15 14 13 12 12 12 13 13 12 11 9 9
8 7 3 5 5 8 6 7 8 9 13 11 14 13 17 22 21 18 16 17 13 18 9 15 20 13 21 23 9 14 14 13 16 9 26 22 26 25 23 21 21 21 20 18 18 17 16 23 19 20 23 25 24 23 23 23 23 23 22 22 21 20 18 18 18 17 18 17 17 16 17 17 17 16 16 16 15 14 13 13 12 14 14 13 12 12 12 10 11 11 11 11 11 11 11 8 8
11 9 4 6 7 8 12 9 9 14 14 12 16 18 21 26 26 24 25 20 15 22 8 8 16 13 16 10 7 13 22 25 17 12 28 24 29 27 24 21 23 21 19 17 17 16 17 22 18 19 21 23 23 23 22 22 23 23 22 22 20 20 19 18 18 18 17 18 17 18 16 17 16 16 16 15 14 14 13 13 12 12 13 14 13 12 12 11 10 10 10 11 11 9 8 7 7
10 11 7 6 10 7 10 8 11 13 17 11 18 16 19 25 31 26 28 25 6 14 7 16 27 22 23 16 18 11 5 15 17 22 21 28 27 25 23 22 22 22 20 19 16 17 18 18 17 18 20 22 23 23 22 22 22 22 22 21 20 19 19 18 18 18 18 18 18 17 17 17 17 16 16 15 15 14 13 12 12 11 11 11 11 11 11 11 10 11 10 10 10 8 6 5 5
6 4 7 5 10 9 9 10 14 11 15 15 15 20 21 23 26 26 29 26 12 15 7 16 15 21 8 7 15 10 15 10 22 26 29 28 24 24 21 24 26 21 20 18 16 16 22 18 17 19 21 20 22 22 22 22 22 21 20 20 20 19 19 19 18 18 17 18 18 18 17 17 17 16 15 15 15 13 13 12 12 10 9 9 10 10 9 10 10 10 9 9 8 8 7 5 5
7 7 6 8 7 14 9 10 17 12 17 14 17 20 20 23 24 24 29 29 7 4 15 19 19 20 10 15 16 10 19 23 28 28 27 26 23 21 26 25 26 23 20 18 17 17 16 17 17 18 20 20 21 22 21 21 20 20 19 19 18 16 17 18 18 18 18 17 17 17 17 17 16 15 14 13 13 12 11 11 10 10 10 10 9 9 8 9 10 9 9 8 9 8 7 5 6
8 10 7 14 8 11 10 14 11 13 20 17 20 21 21 27 22 27 28 27 18 4 9 16 19 21 19 20 18 7 17 25 28 25 25 23 22 23 21 21 25 25 20 18 17 17 16 21 17 17 16 18 19 19 18 17 18 17 18 18 17 16 17 18 16 18 18 17 17 16 16 16 15 14 13 13 12 11 11 9 9 9 8 8 8 7 7 8 9 9 9 9 8 9 8 7 7
11 12 6 9 9 12 14 14 17 14 17 17 19 21 27 27 23 32 21 20 17 12 12 25 25 24 21 10 9 6 16 23 27 27 19 22 25 23 23 20 22 25 23 18 17 16 17 15 21 16 15 17 17 15 15 15 15 15 16 16 16 18 18 17 17 19 18 17 18 17 16 16 14 13 13 12 12 11 11 10 9 9 9 8 8 7 7 7 8 9 9 8 8 7 7 6 8
9 11 13 12 16 17 14 18 17 17 17 18 26 24 19 24 26 31 23 21 14 11 19 16 25 28 18 19 12 16 14 17 20 20 23 23 25 24 22 20 21 20 24 21 18 16 16 15 15 19 18 16 15 15 14 15 16 17 16 17 16 17 16 16 17 17 17 17 16 15 15 15 14 14 13 12 11 10 10 10 9 9 9 8 7 7 6 6 7 8 8 8 7 6 6 6 7
12 8 8 15 14 11 13 14 11 13 14 13 17 28 25 21 29 28 26 22 18 14 16 21 28 18 13 11 11 12 15 11 17 23 23 25 24 23 20 20 20 19 20 20 21 19 16 14 15 14 16 20 16 15 14 16 16 16 16 17 17 19 19 19 19 18 17 16 14 15 15 14 14 13 13 12 11 11 10 10 9 9 9 9 8 6 6 5 6 6 7 7 6 5 5 6 8
17 15 14 19 7 13 13 14 12 18 20 19 22 23 27 21 17 20 24 22 16 13 18 31 26 24 20 18 11 15 16 17 21 21 24 23 23 22 21 20 19 19 17 19 20 20 17 15 14 14 15 13 13 15 17 17 17 19 17 17 17 17 18 17 16 15 15 15 16 15 15 14 13 12 12 11 11 10 10 9 9 9 8 8 7 6 5 4 5 5 5 5 5 4 6 6 8
16 10 13 13 11 9 17 24 13 18 22 17 22 18 15 17 15 10 9 6 4 11 21 25 34 24 24 24 18 22 22 22 23 22 24 23 24 23 21 20 18 17 17 16 17 18 17 16 15 13 13 11 10 9 9 17 20 19 18 19 18 16 17 17 17 15 16 15 15 15 15 14 13 12 11 11 10 10 9 8 8 8 8 7 7 6 5 4 4 5 5 6 6 5 6 7 8
18 12 16 15 18 13 14 18 15 17 25 15 27 17 19 21 15 14 11 10 12 13 22 14 11 13 26 26 31 27 26 25 24 25 26 24 22 21 22 21 19 17 16 17 16 14 16 15 14 14 13 11 9 8 9 11 18 20 19 19 18 18 19 18 16 15 16 16 16 15 15 13 12 10 12 9 10 10 8 6 7 7 7 7 6 6 5 4 3 4 5 5 5 5 6 7 8
10 15 15 16 17 13 13 17 12 25 17 25 20 11 20 22 7 8 6 8 15 6 15 15 10 12 32 16 25 30 28 26 25 26 25 23 23 20 20 18 18 16 16 15 15 16 15 16 14 13 12 12 10 9 8 10 16 20 17 20 20 19 17 17 16 15 15 14 13 13 12 9 7 6 8 5 9 5 7 7 7 7 7 7 7 6 5 4 4 4 3 4 5 5 6 7 8
10 23 21 18 13 16 13 21 18 10 18 18 8 5 6 5 7 8 7 12 15 15 15 18 19 17 20 20 29 31 29 28 27 28 25 23 21 21 20 19 19 19 17 16 15 16 17 15 14 13 13 12 11 11 9 10 12 14 10 11 11 13 14 15 12 9 12 6 12 12 8 8 7 6 6 10 5 6 6 8 7 7 7 7 6 6 6 5 6 6 6 6 5 5 5 4 7
20 17 20 27 16 22 10 16 19 22 18 20 8 14 10 9 6 9 6 6 12 21 16 20 23 22 26 26 28 29 29 26 25 24 25 23 23 22 21 20 18 19 17 16 19 19 17 16 14 14 12 12 12 10 10 10 11 10 9 9 9 10 10 11 7 10 6 7 8 9 8 7 8 7 6 9 9 9 7 8 7 7 6 7 7 7 7 8 8 8 8 8 7 6 4 5 6
18 14 21 22 11 14 16 19 21 20 16 21 7 11 4 5 11 7 5 5 11 19 19 17 26 24 25 26 28 28 25 24 23 24 23 22 22 23 21 20 19 19 18 18 21 19 19 17 17 14 15 13 12 11 10 10 10 10 9 8 8 7 7 8 7 9 9 8 11 9 7 7 8 8 12 14 13 7 7 8 8 7 7 7 8 6 8 8 9 9 10 10 7 6 6 6 7
15 21 23 16 16 19 18 20 21 23 23 16 8 12 14 9 7 5 5 8 9 7 22 28 28 30 28 28 27 26 26 23 22 23 23 20 19 20 21 21 21 22 22 20 19 21 18 19 17 18 16 13 11 11 12 11 10 10 9 9 8 7 7 8 8 9 9 10 10 7 7 5 7 9 8 5 8 7 4 3 2 1 3 3 5 3 5 6 6 6 7 8 7 5 7 8 7
13 22 17 11 10 19 21 23 21 25 24 15 7 7 13 7 8 9 8 7 6 9 9 18 33 30 33 29 26 26 26 23 21 22 21 20 20 21 20 22 25 22 18 21 18 18 17 18 19 20 15 12 12 13 13 12 12 11 9 10 9 7 8 8 7 9 9 10 7 7 7 7 7 9 5 4 6 6 4 3 3 3 3 5 4 6 6 4 5 6 7 8 8 6 8 8 6
28 17 14 19 21 18 13 20 24 24 23 11 9 9 8 9 7 10 22 11 9 11 22 26 25 22 24 30 31 29 24 24 29 31 30 26 29 29 27 26 24 22 20 18 15 14 14 16 11 14 16 14 13 12 12 10 11 11 12 11 10 9 8 8 8 8 8 7 7 7 9 8 7 6 5 5 5 6 6 6 7 7 8 8 7 7 8 7 7 6 7 8 7 6 9 9 9
21 27 10 16 17 24 21 28 19 23 20 13 7 4 9 8 7 14 19 8 14 16 29 30 29 27 26 30 32 27 26 24 26 25 25 25 25 26 23 21 20 18 23 18 14 15 16 16 13 10 16 17 13 12 11 11 11 12 13 15 13 14 13 10 10 9 8 8 9 8 4 8 10 10 7 6 6 6 4 3 5 5 6 8 9 10 9 9 7 8 8 9 10 9 9 7 7
26 29 17 13 14 20 21 29 26 20 21 24 14 19 18 4 8 11 9 13 19 22 25 25 24 26 27 28 28 27 28 29 25 22 26 26 24 18 19 21 19 19 22 20 22 18 16 14 11 10 13 15 13 13 13 11 11 12 10 10 11 11 10 9 9 8 8 6 5 5 8 9 7 8 8 6 4 4 2 2 3 4 5 5 5 7 8 7 7 8 8 8 7 7 7 7 9
26 21 16 15 16 13 18 22 24 23 20 10 12 11 10 16 24 19 13 17 21 25 25 27 22 23 21 23 30 29 27 26 24 24 26 24 22 23 19 22 20 23 25 25 26 22 13 12 12 13 14 16 15 13 13 11 12 13 11 9 9 7 8 8 6 5 5 8 8 9 8 9 7 8 8 6 6 4 4 5 6 6 7 6 8 7 7 8 7 6 7 7 8 7 8 9 7
13 19 18 19 18 20 16 19 19 20 18 9 12 8 8 14 15 6 4 12 23 24 23 21 23 21 17 16 14 15 23 23 22 22 22 21 25 28 24 23 20 20 23 22 23 21 18 17 15 11 13 13 10 10 11 12 12 11 9 7 11 9 8 9 8 8 8 8 7 6 7 7 6 7 7 5 5 4 5 5 6 6 7 7 6 7 4 5 4 4 4 5 7 7 7 6 8
19 18 23 22 17 18 19 19 20 10 19 14 14 14 11 10 9 19 15 9 22 26 21 19 21 19 18 16 15 12 14 16 19 24 27 25 27 30 28 29 27 25 23 23 22 21 20 16 15 14 13 13 9 9 11 13 10 11 11 13 13 10 9 9 9 8 8 7 6 7 7 7 7 8 7 6 3 4 4 6 6 7 7 7 4 5 5 3 4 4 5 5 4 5 7 7 6
17 21 18 21 24 33 21 26 21 12 17 14 12 8 8 8 9 17 16 11 18 26 20 19 19 17 16 15 16 13 15 16 14 16 20 23 23 25 28 27 31 27 20 24 24 21 20 20 18 14 13 16 15 14 13 11 11 12 12 12 11 12 9 9 10 8 8 7 7 8 8 7 8 8 6 5 4 4 6 6 7 5 6 7 5 3 2 4 5 6 7 4 7 6 7 8 8
16 15 19 14 22 28 25 20 16 10 13 12 14 21 12 7 17 17 16 15 15 20 18 16 18 17 15 15 17 15 15 18 19 18 15 18 23 26 28 22 25 25 22 19 21 24 23 20 18 15 15 18 15 13 12 13 12 11 11 12 12 12 9 9 9 8 8 8 8 8 8 7 8 8 6 6 5 6 5 6 7 8 7 5 3 5 7 6 8 6 7 8 8 7 8 8 9
24 16 14 18 13 25 19 29 15 16 12 12 14 17 11 12 16 16 12 17 24 20 15 15 17 16 15 16 17 16 12 11 16 19 18 21 20 21 26 24 23 22 22 21 24 24 20 19 18 17 16 17 15 13 14 13 11 12 11 11 14 13 10 9 9 8 9 8 8 8 9 8 9 8 6 7 6 7 7 7 8 8 8 4 4 6 8 8 7 7 7 7 8 8 7 8 8
17 21 25 12 17 7 11 22 20 21 13 14 11 12 13 13 18 19 11 10 20 21 16 15 15 15 17 15 16 15 16 13 14 13 12 19 21 23 26 25 24 23 25 25 22 19 19 17 17 18 18 18 16 15 13 14 13 11 10 11 11 10 10 10 8 8 8 8 8 8 9 8 9 8 8 8 7 7 7 9 7 8 8 6 6 7 8 8 7 7 6 6 9 8 8 9 9
18 21 7 16 12 11 12 13 19 19 15 11 18 13 16 8 16 17 12 12 15 22 16 14 14 15 16 15 16 16 18 16 15 12 11 12 13 20 24 23 24 21 23 24 24 22 20 19 20 20 19 18 15 14 14 12 13 12 10 12 11 8 10 9 8 8 9 9 7 9 10 10 9 8 7 6 6 8 9 7 7 6 7 7 7 6 8 7 7 8 8 8 6 7 7 7 9
20 12 17 12 12 11 18 6 15 17 16 12 19 17 9 17 20 18 14 16 17 21 17 16 15 13 14 16 18 17 18 17 16 13 11 9 9 14 18 20 20 20 17 15 15 20 22 20 20 20 17 17 17 16 14 14 13 13 11 9 9 10 8 7 8 8 9 8 9 10 8 7 8 7 6 4 6 7 6 5 6 6 6 6 7 9 8 7 8 8 9 8 9 8 8 8 9
16 8 10 10 8 15 15 21 10 19 25 18 13 20 11 17 18 18 17 14 19 21 22 20 18 17 16 16 18 17 19 19 15 13 12 11 9 9 11 16 18 18 16 15 15 15 14 15 15 16 17 16 16 15 14 15 15 12 10 10 9 10 9 8 8 9 8 7 7 7 8 6 6 6 5 6 8 7 6 5 6 8 7 6 8 9 9 9 9 8 8 8 8 7 6 7 8
10 10 11 9 14 16 20 22 15 21 22 25 14 23 19 17 17 17 16 16 19 17 17 17 19 18 19 20 18 18 19 16 15 15 13 11 10 10 10 11 14 14 16 17 16 18 18 15 14 14 14 17 16 15 14 13 13 13 13 9 10 8 8 10 9 8 7 7 7 8 7 6 7 8 9 7 7 6 10 12 8 6 6 8 11 13 11 12 11 9 9 6 9 9 9 10 12
11 13 12 17 16 13 15 16 20 21 25 27 19 13 24 22 22 21 19 16 17 19 19 18 18 20 22 21 19 19 19 18 15 16 13 13 12 10 11 10 11 12 13 13 16 18 19 19 16 15 13 15 16 16 15 16 16 14 9 9 11 7 9 11 12 8 7 6 6 7 6 6 8 8 7 6 6 11 9 9 9 12 11 13 14 14 12 12 11 9 9 7 9 10 12 13 15
18 12 16 17 20 19 15 17 20 21 24 19 18 18 22 23 19 22 20 21 22 22 19 20 21 21 21 22 22 19 18 18 17 16 16 14 14 12 10 10 10 16 12 10 14 15 14 14 13 14 13 14 15 13 15 13 11 13 13 11 11 9 10 12 11 7 8 7 6 6 7 5 5 7 9 10 10 13 15 15 14 14 14 13 13 13 12 12 12 13 10 11 9 9 10 11 15
21 18 10 16 22 18 18 20 18 19 24 21 24 21 20 20 20 17 22 20 20 22 25 28 29 25 23 23 23 22 20 20 18 19 17 17 15 12 10 10 10 7 11 12 13 15 14 13 11 11 11 14 14 13 13 13 8 10 10 12 11 12 10 10 10 9 8 8 7 7 8 8 9 10 11 14 15 15 15 16 16 15 15 13 15 14 12 13 12 12 11 9 9 8 6 9 12
18 19 14 15 14 24 23 24 22 15 30 21 26 16 19 13 11 10 7 17 17 16 19 21 22 26 27 25 25 26 24 24 22 20 19 18 16 13 11 11 10 10 10 10 11 14 13 13 11 12 12 10 13 11 12 11 12 12 11 11 10 10 11 11 11 8 8 10 14 13 14 15 15 16 16 15 16 16 15 16 14 15 14 13 12 12 12 12 12 12 11 11 8 10 12 10 10
21 19 15 18 13 23 25 21 25 19 19 26 23 22 19 13 19 16 8 12 17 17 17 17 15 19 21 21 19 23 25 21 19 19 19 18 16 14 13 11 12 12 10 10 9 13 14 14 12 11 12 11 11 12 13 13 17 16 15 13 11 15 11 10 11 11 10 13 16 16 17 16 17 17 17 17 16 15 15 16 15 14 14 12 11 12 12 11 10 9 11 11 11 7 7 8 10
22 18 18 16 16 11 20 21 11 22 16 17 34 19 16 10 16 21 15 17 18 17 21 21 22 23 23 23 24 18 18 19 24 21 21 20 17 16 13 13 13 12 11 8 5 7 11 13 11 10 10 10 12 11 13 13 15 18 18 16 14 12 14 11 12 13 11 15 18 15 18 18 17 17 17 17 17 16 16 16 15 15 13 12 11 10 10 11 12 12 11 10 11 10 5 9 11
19 25 16 21 24 21 14 22 10 19 32 18 29 29 20 10 17 17 21 20 19 18 22 25 23 22 20 22 22 22 22 18 15 17 18 17 16 17 16 14 13 13 11 7 7 9 10 11 9 9 11 10 10 10 9 11 11 11 12 12 13 14 15 8 8 10 14 15 16 18 17 16 17 18 16 16 15 15 14 14 14 14 12 11 10 12 13 11 11 10 11 12 10 9 9 13 10
32 16 13 18 22 20 25 19 13 12 9 21 22 27 29 21 21 24 19 21 21 23 24 23 22 20 18 18 20 19 21 20 20 17 16 16 17 19 17 14 13 13 11 9 9 10 11 11 10 9 9 11 9 9 9 8 12 10 11 10 11 12 13 14 12 14 14 16 19 17 17 17 17 16 15 14 14 14 14 14 13 12 12 11 12 13 13 11 12 11 11 10 10 10 9 10 8
26 15 17 18 16 22 22 12 9 18 15 17 19 25 27 21 21 16 20 21 17 23 26 22 22 22 19 19 22 21 21 20 21 21 19 18 18 17 16 16 13 12 11 11 10 9 10 11 12 10 10 11 10 9 10 9 9 11 12 12 13 10 14 15 15 15 16 17 19 16 16 15 15 14 13 13 13 13 13 12 12 12 11 11 12 13 12 12 12 12 13 13 11 11 10 8 11
19 20 16 19 17 20 15 14 19 15 30 24 19 21 27 13 19 21 18 21 22 22 22 22 23 24 19 22 21 20 18 18 18 19 20 17 16 15 14 13 13 12 11 12 10 9 9 10 13 13 12 10 10 10 10 11 10 11 12 11 15 14 15 16 15 15 14 16 18 15 13 13 12 12 12 13 13 12 11 11 12 12 11 11 13 12 12 13 12 11 11 9 10 11 10 11 11
10 21 21 22 21 18 8 13 15 11 27 30 23 21 21 19 21 30 32 37 36 26 21 21 22 20 20 20 22 22 21 20 20 18 16 16 15 16 15 16 15 14 13 13 12 11 10 12 13 15 12 11 9 9 10 10 9 8 11 11 15 17 15 16 16 15 16 16 17 14 13 12 11 11 12 13 11 10 11 11 11 10 10 11 12 12 12 11 10 10 10 10 11 10 10 11 12
16 27 26 15 18 5 7 12 5 20 22 16 20 25 18 25 20 18 27 27 34 39 34 31 28 26 23 23 23 22 21 21 22 20 19 19 18 17 16 18 18 15 14 14 12 11 11 11 14 17 14 12 12 13 14 14 13 13 12 14 15 14 13 14 15 16 16 17 16 15 12 13 11 11 11 12 11 10 12 12 10 10 11 11 12 10 11 11 10 10 11 10 11 10 10 11 10
21 19 16 18 15 18 21 15 19 23 24 12 14 15 15 22 28 35 33 17 29 34 40 39 33 25 23 22 23 22 21 22 22 20 21 21 20 21 20 19 18 16 16 14 14 13 12 13 14 18 14 12 14 14 14 13 13 12 13 14 12 13 15 16 16 17 14 17 16 14 13 13 10 12 12 11 9 10 12 12 12 12 12 11 11 11 9 10 10 10 10 10 11 11 10 11 13
27 28 20 21 24 19 18 16 15 10 13 10 22 14 20 10 13 37 33 27 34 32 30 33 31 31 27 24 24 23 22 22 21 20 21 21 21 20 21 21 18 16 15 15 14 14 12 13 13 16 15 13 13 15 14 15 14 14 14 15 16 17 17 18 16 18 16 17 16 16 13 12 12 11 11 10 9 10 11 9 10 10 10 11 11 11 10 9 9 10 10 11 10 10 12 15 17
30 18 16 15 17 25 20 17 23 20 15 12 9 26 24 17 15 34 37 35 33 33 33 30 31 32 29 24 23 24 22 20 23 21 22 21 22 21 21 20 18 16 15 15 14 13 13 13 14 15 16 14 15 14 15 15 14 14 15 16 16 16 17 18 17 16 17 18 16 15 12 12 13 10 10 7 11 10 9 11 10 11 11 11 11 11 12 11 10 11 11 11 11 11 15 19 19
24 18 11 13 23 15 15 17 14 12 11 11 13 20 7 14 11 28 33 25 28 30 29 25 26 24 25 25 27 25 23 24 23 22 22 20 21 19 20 19 18 16 15 15 15 14 14 13 13 14 15 15 15 15 14 15 14 15 15 16 16 16 16 16 17 15 15 16 15 15 13 11 11 10 7 10 9 10 10 11 12 11 10 11 10 11 11 11 10 12 12 12 13 14 19 18 16
25 19 28 23 12 13 10 5 5 9 12 16 9 7 7 8 25 19 23 28 27 30 29 30 28 26 28 28 28 25 24 25 24 23 22 22 20 19 20 19 18 16 16 16 14 13 14 14 15 15 14 14 14 14 14 14 14 15 15 16 16 16 16 16 17 16 15 15 14 13 13 11 10 9 10 10 11 10 10 11 12 12 12 11 11 11 11 10 10 11 12 13 15 15 18 16 16
18 29 22 8 10 8 20 14 8 12 17 18 8 10 7 14 18 16 23 29 28 29 29 31 28 27 29 27 28 27 26 24 24 22 21 22 21 21 20 18 16 18 17 16 15 14 14 13 14 14 14 14 12 13 13 13 14 15 14 15 15 15 16 16 15 15 13 14 14 13 12 12 9 11 13 12 13 12 12 12 11 12 12 12 12 11 10 10 11 12 12 14 13 14 16 15 15
13 18 13 26 23 24 13 20 13 15 18 11 7 12 11 20 21 19 22 27 26 26 26 29 29 30 27 26 25 24 24 24 26 24 23 23 22 21 21 19 18 18 17 17 18 18 16 12 12 13 14 13 12 12 12 13 13 12 13 15 15 14 14 14 13 13 13 16 14 13 12 11 12 13 14 13 13 13 13 13 12 12 13 13 13 13 11 11 10 13 14 14 12 14 15 14 14
12 10 21 16 12 12 12 23 14 21 10 8 8 9 17 13 35 32 31 31 30 27 29 32 33 30 28 28 27 28 28 26 26 24 23 23 23 21 22 23 21 20 20 19 18 18 16 14 14 13 13 12 12 12 12 13 13 13 14 14 13 14 14 14 13 13 13 14 13 13 13 14 14 13 13 13 14 14 14 14 14 14 13 13 14 14 14 12 11 12 13 13 11 13 14 14 13
19 13 13 21 22 12 14 9 16 19 17 16 14 13 14 16 25 34 34 35 34 36 35 29 29 29 29 29 30 29 28 27 27 25 25 25 23 20 21 21 20 19 19 18 18 18 16 14 14 13 13 12 12 12 12 13 13 12 13 13 12 12 12 11 11 12 14 14 13 13 14 13 14 13 14 15 15 15 15 15 14 14 13 13 14 14 13 12 12 11 11 11 11 13 14 13 12
12 14 11 11 17 13 12 14 8 13 18 18 18 15 15 13 14 35 38 36 38 35 36 31 29 28 29 29 27 29 28 25 26 24 24 25 22 22 21 21 20 21 20 19 17 18 15 14 14 14 13 14 13 13 12 12 10 12 12 12 11 10 12 11 12 12 13 14 14 14 13 16 15 14 15 16 16 15 15 15 14 13 12 13 13 13 12 12 14 12 9 10 12 14 14 12 11
Wind_Speed
8 8 8 7 4 0 3 4 2 3 2 2 3 2 6 1 2 5 5 11 5 1 1 2 6 4 4 4 8 3 3 10 4 10 7 0 5 13 15 18 16 14 14 12 10 10 11 12 15 17 16 19 18 18 17 17 18 18 18 18 18 16 15 15 14 14 14 14 14 14 13 13 13 13 12 12 12 11 11 12 12 12 12 12 12 12 12 11 11 10 9 8 7 7 7 7 7
5 7 7 5 4 2 1 1 2 2 3 2 6 1 6 8 4 3 6 8 1 2 5 4 7 8 10 12 9 7 4 4 1 2 3 4 11 11 15 17 18 18 13 11 11 10 8 11 14 15 18 19 18 18 17 17 18 18 18 18 18 17 16 15 15 15 14 14 14 14 13 13 13 12 11 11 11 11 9 11 11 12 12 12 11 11 11 11 10 10 9 8 7 6 6 7 7
5 7 7 7 3 4 0 3 2 0 0 4 6 4 5 10 10 4 6 7 5 3 6 6 4 4 1 3 1 2 2 3 7 4 4 9 15 8 15 15 16 17 15 10 10 10 8 10 13 15 19 19 19 18 17 17 18 19 19 18 18 18 16 15 14 14 13 14 14 14 14 12 12 12 11 11 10 10 10 10 11 10 11 11 10 10 10 10 9 9 8 8 6 6 6 6 7
3 1 3 3 2 4 1 2 3 2 1 5 7 4 4 8 10 6 6 11 5 3 3 1 3 4 1 5 2 3 3 2 1 9 7 8 1 12 12 15 14 13 11 10 10 9 9 12 14 16 19 19 19 19 17 18 18 19 18 17 18 17 15 15 15 14 13 13 13 14 14 12 12 11 11 10 10 10 9 9 9 10 10 9 9 9 8 8 8 8 8 7 6 6 6 6 6
5 3 0 2 2 1 1 2 2 4 3 2 5 6 6 8 11 10 9 11 8 11 3 3 3 5 2 4 1 1 5 6 6 4 7 5 13 11 12 13 13 13 12 11 10 9 10 18 14 14 16 18 18 18 18 18 18 18 18 17 17 16 15 15 15 14 14 13 13 13 13 13 12 12 11 10 9 9 9 9 8 9 9 9 8 7 7 7 7 7 6 6 6 6 5 5 6
3 3 1 2 0 2 3 1 2 3 7 4 2 7 9 12 13 13 13 13 10 14 4 3 5 3 3 3 1 1 5 4 7 4 8 9 16 16 14 12 12 12 11 9 9 8 10 18 14 13 15 18 18 18 18 18 18 18 17 17 17 16 15 15 14 14 14 13 12 13 13 13 13 12 11 10 10 9 9 8 8 8 8 8 7 7 7 7 7 6 6 5 5 4 4 5 5
3 4 2 2 1 1 4 3 7 7 7 5 4 8 11 13 12 12 14 13 4 10 4 1 10 8 4 0 2 2 2 7 6 7 7 15 16 16 14 12 12 12 11 9 8 8 11 15 14 13 14 16 18 18 18 17 17 17 18 16 16 16 16 15 14 14 14 13 13 13 13 13 12 11 11 11 10 9 9 8 8 8 7 6 6 6 6 7 7 7 6 5 5 3 3 3 3
0 1 1 1 1 1 1 4 6 4 6 8 6 8 12 13 15 10 14 9 4 5 1 7 2 5 3 2 3 3 5 5 11 14 16 16 16 14 14 13 14 12 10 9 8 8 15 14 14 14 16 15 17 18 18 17 17 16 16 16 15 15 15 15 15 14 14 13 13 13 12 12 12 12 11 10 10 9 8 8 8 7 6 6 7 6 6 6 7 7 6 6 5 4 3 3 3
2 1 1 4 1 0 1 4 6 3 3 2 5 8 11 14 15 13 16 11 4 1 6 7 5 5 2 4 2 1 5 13 14 18 16 17 15 15 11 13 15 12 11 9 8 8 9 14 13 13 15 16 16 17 17 16 16 16 15 15 15 13 14 14 15 14 13 12 11 12 12 12 12 11 10 9 9 8 8 8 7 7 7 7 6 5 5 6 7 6 6 6 5 5 4 3 4
0 1 1 2 3 4 3 5 3 5 7 6 9 10 10 10 14 12 15 16 9 2 4 1 1 5 6 6 4 3 5 15 16 15 15 13 14 13 13 13 15 16 12 9 7 8 7 15 13 12 12 14 15 15 15 14 14 14 14 13 14 13 14 14 13 13 13 12 11 11 11 11 10 9 8 8 7 7 7 7 6 6 5 5 5 5 5 6 6 6 6 5 5 6 6 5 5
0 0 2 1 1 4 6 7 7 6 6 4 4 8 11 13 14 12 13 13 11 5 3 8 4 11 6 2 1 1 10 15 18 16 11 12 14 14 13 12 12 14 14 10 9 8 8 9 16 11 11 12 12 11 12 12 12 12 13 13 13 14 14 13 12 13 12 12 12 12 11 10 10 9 8 7 7 6 6 5 5 5 5 5 5 4 5 5 5 6 5 5 4 4 5 5 6
1 2 1 3 5 8 6 6 7 8 6 4 5 8 7 14 9 7 14 13 8 6 10 9 8 10 5 3 4 9 9 11 13 13 13 13 12 13 13 11 13 12 13 13 10 8 8 8 7 13 13 12 10 12 11 12 13 13 12 13 12 13 13 12 12 11 11 12 11 10 10 9 9 8 8 8 7 7 6 6 5 5 5 5 4 4 3 4 4 5 4 4 3 4 4 5 6
2 2 3 2 4 3 5 5 5 5 4 4 7 6 12 8 8 15 16 15 13 7 6 7 16 4 4 3 3 7 10 7 11 15 14 12 12 12 12 12 12 13 12 12 11 9 8 8 7 6 10 13 11 10 11 13 13 12 12 13 13 14 14 13 13 12 12 11 10 10 9 9 8 8 7 7 6 6 6 6 6 6 5 4 4 3 3 3 4 4 4 4 2 3 4 5 6
4 5 6 6 1 4 5 3 2 4 6 5 7 12 11 5 6 9 12 13 12 8 2 14 11 9 7 6 3 8 7 10 14 15 13 12 11 12 13 12 13 12 10 10 11 9 9 7 7 6 8 6 5 9 14 14 13 14 12 12 13 13 13 13 11 10 10 10 11 10 9 9 8 8 7 6 6 5 5 5 5 5 4 4 3 2 1 2 3 3 3 3 3 2 4 4 6
6 1 2 2 2 3 3 5 6 6 7 7 7 9 5 7 11 7 6 1 2 4 9 6 6 10 7 11 6 10 12 14 15 15 15 13 14 13 14 12 12 11 11 9 9 10 9 8 6 6 6 4 3 4 4 11 15 15 13 15 13 12 12 12 12 10 11 10 10 9 9 9 8 7 6 6 5 5 5 5 4 4 4 3 2 1 0 1 2 3 3 4 4 4 4 5 6
5 3 2 3 5 6 4 7 4 5 6 6 16 4 7 13 9 8 5 4 2 3 12 4 4 3 7 15 13 16 18 16 16 16 16 15 13 13 13 12 11 11 9 9 9 8 7 7 6 6 5 4 3 3 5 7 13 16 15 14 14 14 14 12 11 10 10 10 10 9 9 6 6 4 7 4 5 5 4 3 4 4 4 3 2 1 0 1 2 2 3 3 3 3 4 5 7
2 2 4 2 6 6 4 4 6 7 6 12 14 5 9 10 4 3 4 2 9 3 1 1 3 2 14 4 15 20 18 17 17 18 17 13 12 10 10 9 9 9 7 8 7 7 6 6 6 5 5 3 3 3 4 5 9 14 12 15 15 14 13 12 10 11 9 9 7 8 6 3 2 2 3 1 4 2 4 4 4 4 4 3 2 1 1 1 2 2 1 2 3 3 4 5 6
2 6 5 7 5 8 6 8 7 4 5 10 6 3 4 4 3 3 3 8 7 8 8 5 12 10 10 11 19 20 19 19 18 19 14 13 11 10 9 9 9 9 8 8 7 6 6 5 5 5 4 3 3 3 3 3 5 8 5 6 6 8 10 11 7 4 7 3 8 5 3 2 2 2 2 4 1 2 2 4 4 4 4 3 2 2 2 3 4 4 4 4 3 4 4 3 4
7 3 6 13 7 7 6 7 7 3 7 11 3 9 7 5 3 0 1 0 2 9 6 7 11 12 15 17 19 20 19 18 17 17 17 15 12 13 10 9 9 10 9 8 7 6 4 5 4 4 4 3 3 2 3 3 4 3 4 4 4 6 5 6 4 5 3 3 3 3 3 3 3 2 3 3 3 4 2 3 2 3 2 2 3 2 3 4 5 6 6 6 5 5 3 3 4
8 4 9 9 5 7 9 4 7 7 8 11 5 6 4 3 1 0 2 2 4 8 9 5 10 13 16 17 19 19 17 16 16 17 16 14 12 12 11 11 10 11 11 8 8 5 5 5 6 5 5 4 4 2 3 4 3 3 3 3 4 4 4 4 3 3 3 3 4 3 3 3 3 3 5 7 5 1 1 1 2 1 0 1 2 2 4 5 6 7 7 7 5 3 4 4 5
3 7 8 5 7 6 11 11 12 13 9 8 4 7 9 6 3 0 3 4 3 2 1 8 11 13 13 15 15 14 14 14 15 16 16 14 12 9 9 10 12 13 12 11 9 8 8 9 8 8 7 5 4 4 4 4 3 4 4 4 4 4 4 4 3 3 3 3 3 4 3 3 3 3 3 1 3 1 0 0 1 0 0 1 2 1 1 2 3 4 4 5 3 3 4 4 3
1 11 7 4 4 9 11 9 11 11 14 5 1 3 7 4 3 4 1 3 3 5 4 7 17 17 16 13 12 14 11 7 13 15 15 14 14 14 12 8 9 10 10 11 9 9 10 10 9 8 7 6 5 4 4 5 6 5 5 5 4 4 4 3 2 3 4 3 3 4 3 3 2 1 0 1 2 2 2 1 2 2 1 2 1 2 2 2 3 3 3 4 4 3 3 3 3
9 6 4 8 6 5 6 11 11 12 11 3 1 4 3 3 1 3 4 3 3 6 6 12 15 15 15 17 19 18 13 12 11 10 11 12 11 11 11 9 10 10 10 9 7 6 5 3 6 7 6 6 6 5 4 5 6 6 5 4 5 4 4 4 3 4 4 4 4 4 4 2 2 3 2 3 3 3 3 2 4 3 2 3 3 2 2 2 2 3 3 4 3 3 3 3 4
8 9 4 6 8 12 8 6 8 10 10 4 3 2 4 4 2 2 3 5 2 6 10 12 14 13 16 19 18 17 18 17 14 13 10 6 6 10 9 11 9 9 10 9 5 5 3 5 6 5 7 6 6 6 6 6 6 5 4 5 5 6 6 5 5 5 5 5 5 2 2 5 5 4 2 2 3 3 3 3 3 3 4 4 3 3 3 3 3 3 3 3 3 3 3 3 3
12 11 9 6 5 7 10 13 13 12 10 4 2 6 12 1 2 2 3 2 4 12 14 14 15 16 15 18 17 17 18 18 17 16 11 5 6 11 11 10 11 11 12 9 8 5 3 2 3 0 5 7 7 8 7 5 4 4 4 5 6 6 6 6 5 5 5 2 1 3 3 5 4 4 3 3 3 3 2 1 2 1 2 1 3 4 4 3 2 3 3 3 3 3 4 4 3
10 11 7 7 8 6 9 11 15 16 7 5 5 7 6 8 10 5 1 0 4 12 13 15 15 16 14 13 13 12 12 13 12 13 16 14 13 14 12 10 10 11 11 13 11 13 7 5 5 6 8 9 8 7 6 3 5 5 5 5 5 4 5 4 3 3 2 4 3 3 4 5 4 4 4 4 4 2 1 0 1 1 1 1 1 4 3 4 4 3 3 3 3 2 2 3 3
3 9 10 11 10 9 7 11 13 14 7 4 6 6 4 10 6 0 2 3 7 11 12 10 15 14 11 10 8 8 14 16 15 11 12 12 14 15 15 14 13 12 13 12 13 12 11 11 10 7 8 8 6 6 5 6 6 5 5 4 4 3 3 3 4 4 4 4 4 3 4 4 3 2 2 2 2 2 2 2 3 3 2 2 1 1 2 2 2 1 0 1 2 2 3 4 4
9 5 9 12 11 11 10 9 10 4 4 6 7 9 7 7 4 9 8 6 7 15 11 11 12 11 9 9 9 8 9 10 11 12 17 15 12 13 15 15 16 15 14 14 12 12 12 11 9 9 9 8 6 4 4 4 4 4 3 4 5 4 4 4 4 4 4 4 4 4 4 4 2 2 2 2 2 3 3 3 3 4 4 4 2 2 1 1 1 0 0 0 1 1 2 3 3
7 10 8 9 13 14 14 13 11 5 6 6 7 5 4 1 5 10 11 7 6 12 12 12 11 10 9 7 7 7 8 10 9 6 4 6 8 10 13 13 17 16 11 15 14 13 13 13 11 9 7 9 9 8 7 6 6 5 5 5 5 5 5 5 5 4 4 4 4 4 4 3 2 2 2 2 2 3 2 2 2 3 3 3 2 1 1 1 2 2 2 1 2 2 3 4 4
5 7 9 8 7 11 16 9 10 7 4 7 7 7 7 2 6 11 11 10 7 10 11 9 8 8 7 6 6 9 10 12 13 12 9 10 10 11 13 12 15 14 12 10 13 15 13 11 9 8 8 11 10 8 7 7 7 6 5 5 5 5 4 5 4 4 4 4 4 4 4 3 2 2 3 4 3 2 2 3 2 3 4 3 1 2 4 3 4 4 4 4 4 4 4 4 4
5 3 4 7 7 9 8 8 9 9 5 8 9 8 5 1 7 8 8 11 16 12 10 10 9 8 6 5 7 9 8 6 7 7 8 10 12 11 14 12 13 13 11 12 15 15 13 12 10 8 9 11 10 9 9 8 6 7 6 5 4 5 4 4 3 3 3 4 4 3 3 3 2 2 3 3 2 3 4 3 2 2 2 0 2 3 5 5 4 4 4 5 3 4 4 4 3
2 3 11 4 9 2 5 10 10 11 3 8 7 5 7 6 8 8 8 7 11 13 10 9 9 8 8 8 9 9 10 8 7 7 6 7 8 10 11 12 13 14 15 14 12 11 11 11 11 11 11 12 10 9 8 8 8 6 6 6 5 4 5 4 3 3 4 4 3 3 3 4 3 3 3 2 3 3 2 2 2 3 2 3 4 4 5 5 3 4 3 4 5 5 5 5 5
3 7 1 6 5 5 3 8 11 13 5 4 12 4 3 2 3 4 4 6 10 14 11 9 10 9 9 9 8 8 10 10 8 7 7 4 4 7 10 11 11 12 10 12 13 11 11 12 12 13 12 12 10 9 9 8 8 7 6 5 4 4 5 5 4 3 4 3 2 3 3 4 2 3 3 3 3 2 2 2 1 2 1 4 4 3 4 2 3 3 5 4 4 3 4 4 5
6 2 6 3 6 4 7 3 7 10 10 4 4 6 5 6 11 8 5 8 11 14 11 11 9 8 8 9 8 9 10 10 9 8 7 4 4 3 3 5 3 2 2 2 5 10 12 10 10 10 10 11 10 9 9 8 7 7 6 5 5 5 5 4 3 3 4 3 3 4 3 3 3 3 3 3 2 2 2 1 1 3 4 4 4 3 2 2 4 5 5 5 4 3 5 5 6
6 3 3 4 3 9 5 7 5 7 10 9 4 5 5 8 10 9 8 8 12 14 13 13 11 10 10 8 8 10 11 11 8 8 8 7 5 5 4 5 5 3 2 2 2 2 4 6 7 9 9 8 8 8 9 9 9 7 5 5 5 5 4 3 2 4 3 3 3 3 3 3 4 4 3 3 3 2 2 3 4 4 3 2 2 3 4 5 5 5 5 5 4 3 3 4 4
4 4 5 4 7 6 8 5 2 11 5 9 7 6 9 11 8 7 6 7 10 11 10 10 10 10 9 9 9 10 11 9 7 9 9 7 6 6 6 6 4 4 3 3 3 3 4 6 7 7 7 6 6 6 7 7 7 7 7 5 6 4 3 4 3 4 2 3 3 4 4 3 4 4 3 3 3 4 3 3 4 4 3 2 4 6 7 7 7 6 6 4 5 4 5 5 6
3 4 5 7 6 2 4 6 6 6 4 8 7 7 13 13 13 12 10 8 9 12 12 11 10 11 11 11 10 9 9 9 9 10 9 8 8 6 7 6 5 5 3 3 4 3 3 5 7 8 6 6 6 7 6 7 8 7 5 5 6 4 4 3 4 3 4 3 3 4 4 4 4 4 3 4 4 3 4 5 6 5 4 5 7 7 7 7 7 5 3 3 5 5 7 7 8
7 4 3 7 7 7 3 5 7 5 6 5 5 11 11 14 12 12 10 12 13 14 13 13 14 13 11 13 13 11 10 8 10 9 11 9 8 8 7 6 7 8 5 4 5 4 3 5 7 8 5 5 5 6 6 5 4 6 7 6 5 4 4 4 4 4 4 3 3 3 2 2 4 5 5 6 6 6 7 7 6 4 5 6 7 7 8 7 7 7 4 4 4 5 4 7 7
8 5 5 3 6 4 4 4 5 5 5 6 8 11 10 11 11 9 12 12 10 12 16 17 19 16 13 13 12 13 12 13 12 11 11 10 10 8 6 6 6 5 5 6 6 6 6 6 6 7 5 5 4 4 4 5 3 4 5 5 6 4 3 3 4 3 3 4 4 4 5 5 5 6 7 7 7 7 6 5 5 5 7 6 8 8 7 8 6 6 6 4 4 4 3 5 7
8 6 4 7 3 7 7 7 4 2 6 4 8 9 5 5 5 6 4 5 7 6 7 10 10 16 17 16 15 15 14 14 14 12 11 10 11 8 6 7 6 6 6 6 7 7 6 6 6 7 6 4 5 4 3 3 4 6 6 7 5 4 5 4 5 4 4 7 9 7 7 6 7 8 7 7 7 6 5 5 5 7 8 7 7 7 7 7 6 6 6 7 3 5 5 6 6
10 7 4 4 4 4 5 4 6 3 4 5 11 7 3 5 9 5 4 6 10 8 10 9 9 10 11 11 11 15 16 15 13 14 12 10 10 9 9 7 7 7 6 6 5 5 4 5 6 7 5 4 4 4 5 5 7 7 7 7 6 8 6 6 5 6 6 7 7 7 7 7 8 8 8 8 8 7 6 7 8 8 8 7 6 6 6 5 5 5 6 6 7 3 5 3 5
9 8 8 6 4 4 5 4 6 3 4 2 14 4 4 4 4 7 7 8 9 10 12 13 13 11 14 13 13 11 11 12 15 15 14 13 10 10 8 9 9 7 6 4 3 4 5 5 6 6 5 3 4 5 5 6 6 8 8 8 7 6 7 6 7 7 6 6 7 5 8 8 7 8 8 8 7 7 8 8 9 9 8 7 6 5 5 6 7 7 6 6 7 6 3 5 5
7 6 10 7 5 5 6 1 2 4 6 7 8 12 2 4 6 7 6 11 12 10 12 15 13 12 12 12 12 11 12 11 9 11 12 12 11 10 9 9 8 8 6 4 4 5 5 5 5 6 5 4 3 4 4 5 6 4 6 7 7 8 8 4 4 6 7 6 6 8 7 7 8 9 8 7 7 8 8 8 9 8 7 6 5 6 7 6 6 6 6 7 6 5 5 7 6
10 4 9 8 8 9 9 1 1 4 3 4 12 7 9 6 9 11 11 10 14 14 14 13 10 13 12 10 11 12 12 13 11 10 11 11 12 12 11 9 8 8 7 5 5 5 6 6 5 6 5 5 3 4 5 5 7 6 6 6 6 7 7 8 7 7 7 6 8 7 7 7 7 7 7 8 8 8 8 8 8 7 7 6 6 6 6 6 6 6 7 6 6 6 5 6 5
4 4 6 5 7 8 6 2 4 5 4 4 9 4 5 4 8 9 5 9 9 17 19 15 13 13 11 10 11 12 11 12 12 11 12 11 11 11 10 9 8 8 7 6 6 5 5 5 5 6 6 6 5 4 5 5 5 6 7 7 7 5 8 8 7 7 7 7 9 7 8 7 7 7 7 8 8 8 8 7 7 7 6 6 6 6 6 7 8 7 8 8 6 6 6 5 6
6 6 3 3 2 3 3 6 6 6 1 6 10 10 6 2 5 9 5 4 8 12 13 13 14 14 11 12 12 13 11 10 10 11 11 10 9 9 9 8 9 7 7 7 6 6 5 5 6 7 7 5 5 6 5 5 5 6 7 7 9 8 7 7 7 8 7 7 9 8 6 6 6 6 7 8 8 8 7 7 7 7 6 6 6 6 7 8 7 7 6 6 6 7 6 6 6
1 6 4 4 2 1 1 4 4 1 5 10 12 11 7 4 8 14 13 16 19 13 10 10 11 11 11 13 14 13 12 11 11 10 9 9 8 9 9 9 9 9 8 8 7 7 6 6 6 7 5 5 5 6 6 5 4 4 6 7 9 10 9 9 9 8 7 7 8 7 6 6 5 6 7 7 7 6 7 6 6 6 6 6 7 7 7 7 6 6 6 7 7 7 6 6 6
5 6 5 2 6 1 1 3 2 5 8 8 12 15 9 8 6 9 13 15 19 21 21 18 15 15 13 14 13 13 12 11 11 11 10 10 10 10 10 10 10 10 9 8 7 6 7 6 7 8 5 5 5 5 6 5 5 5 5 7 8 8 8 7 9 9 8 9 8 7 5 6 6 6 6 6 6 6 6 6 6 6 7 7 7 6 6 6 6 6 6 6 6 6 6 6 5
9 7 3 8 2 3 4 2 5 9 8 5 9 10 4 10 12 20 21 11 17 20 20 23 21 16 14 14 14 12 11 12 12 10 10 11 11 11 11 11 11 10 9 9 8 8 8 8 8 9 7 6 6 6 6 6 6 6 6 6 6 6 7 8 9 10 8 8 7 7 6 6 6 7 6 6 6 6 6 7 7 7 7 6 7 7 6 6 6 6 6 6 7 6 6 7 8
11 11 6 8 6 4 5 6 1 2 6 5 7 9 5 2 2 18 21 16 22 21 17 19 19 19 17 15 14 12 12 13 12 10 11 11 11 10 11 11 10 10 9 9 9 9 7 7 7 9 8 6 6 7 7 8 7 7 6 7 7 8 8 9 8 9 8 7 6 7 7 6 7 6 6 6 5 6 6 5 6 6 6 6 7 7 6 6 6 6 6 7 6 6 8 10 10
12 4 7 6 4 4 5 3 7 8 7 5 3 9 5 5 5 15 20 22 21 18 12 10 11 14 15 14 13 13 13 12 11 10 12 11 11 12 11 11 11 10 10 9 8 8 8 8 8 9 9 7 7 7 7 9 8 8 8 7 7 7 8 9 8 8 8 8 7 8 7 6 7 6 6 5 6 6 6 7 6 7 7 7 7 7 6 6 6 6 6 6 6 7 9 11 11
6 4 6 5 10 6 4 6 6 4 2 0 2 3 3 5 5 12 15 10 10 12 11 11 11 13 13 13 14 14 12 12 11 11 11 11 12 12 12 11 10 10 10 9 9 8 8 8 7 8 8 7 8 8 7 7 7 7 8 9 8 8 8 8 8 7 7 7 7 8 7 6 6 6 4 6 6 6 6 7 7 7 6 7 6 6 7 6 6 7 7 7 8 7 10 11 9
5 8 11 10 5 7 2 1 0 2 4 5 1 1 1 1 11 8 12 13 11 13 12 12 14 14 14 13 14 14 13 12 13 12 10 12 12 11 12 12 10 10 10 10 9 8 9 9 9 9 7 7 8 7 7 7 7 8 8 8 8 8 9 9 9 9 9 7 7 7 7 7 6 6 6 6 7 6 6 7 7 7 7 7 7 6 6 6 6 6 7 8 9 9 10 10 9
6 9 10 2 3 3 3 4 1 2 4 4 1 4 2 3 1 2 12 13 12 14 15 13 15 14 15 13 14 15 14 13 13 14 12 13 13 13 11 10 10 11 11 10 10 8 8 8 8 9 8 8 6 7 7 7 8 8 8 8 8 8 9 9 9 9 7 8 7 7 7 7 6 6 7 6 7 8 7 7 7 7 7 7 7 6 6 6 6 7 7 8 7 9 9 8 8
7 9 7 8 6 10 3 3 2 4 5 2 1 4 3 5 7 8 11 15 13 14 13 13 16 15 15 14 14 14 14 12 13 14 13 13 13 13 12 11 11 12 11 11 10 9 9 7 7 8 8 7 6 5 6 5 6 6 6 8 9 8 7 8 7 7 7 9 8 8 7 7 7 8 8 8 7 7 7 7 7 7 7 7 7 6 5 5 6 8 8 8 7 8 8 8 7
1 3 8 8 5 4 3 6 3 7 3 2 1 0 4 3 12 18 18 19 19 17 15 16 18 19 15 14 15 15 15 13 14 13 13 13 13 14 14 13 13 13 12 11 10 9 10 8 9 8 7 6 5 6 5 7 6 7 8 8 8 8 8 8 7 7 7 8 8 8 8 9 8 8 8 8 7 7 7 7 6 7 7 7 7 6 6 6 6 7 7 7 7 8 9 8 7
4 3 2 3 4 2 5 1 4 5 4 3 4 1 5 4 10 20 22 22 21 21 20 16 17 18 17 17 17 16 17 15 14 14 14 14 14 13 13 12 12 11 11 10 10 10 9 8 8 8 9 6 6 5 5 6 6 7 8 8 7 7 7 6 7 7 9 8 8 8 8 8 8 8 8 8 8 7 7 6 7 6 6 6 6 7 6 6 6 6 6 7 7 8 9 7 7
6 6 5 6 8 4 3 5 1 2 5 3 6 4 6 6 7 15 18 19 20 22 22 19 19 18 18 16 17 17 16 16 15 15 14 14 14 13 13 12 12 12 11 11 10 10 10 8 8 7 7 6 6 5 5 6 5 6 7 7 6 6 6 6 7 8 8 8 8 8 8 9 10 7 8 9 8 6 6 6 6 6 6 6 6 7 6 7 7 7 6 5 7 9 8 7 6
Wind_Direction
341 342 323 324 313 294 50 359 42 310 44 275 291 326 268 255 253 327 308 298 317 303 79 108 115 147 170 191 153 148 37 139 204 133 215 213 115 134 125 131 132 131 135 139 142 146 147 150 149 145 141 138 135 132 128 125 122 119 118 116 114 110 108 108 107 105 105 105 106 106 105 107 109 110 111 112 113 114 113 114 113 112 110 110 109 105 99 96 94 91 87 81 75 69 68 68 69
334 336 320 325 321 41 334 104 107 351 34 356 261 265 260 287 314 294 316 277 308 360 0 56 71 87 100 120 135 95 20 351 204 149 64 122 110 114 130 133 136 134 137 139 140 138 144 148 147 144 141 138 136 133 129 125 122 120 119 117 114 111 110 109 108 108 107 107 108 108 108 109 109 109 110 112 112 113 107 109 112 117 116 113 106 104 100 95 93 87 83 78 73 67 61 64 66
335 350 338 356 20 73 249 48 304 163 76 283 268 226 301 304 289 322 303 292 45 105 132 96 83 59 66 357 12 26 215 54 87 91 89 136 123 150 137 135 133 133 135 136 136 139 140 146 146 145 141 138 136 132 129 125 123 122 120 119 118 116 112 110 110 109 108 109 109 111 112 112 111 111 113 114 116 116 116 117 117 115 114 111 109 99 97 96 95 96 92 88 78 70 62 61 63
330 355 41 22 332 23 67 22 104 146 212 223 284 270 250 274 289 298 303 306 315 189 176 133 47 281 207 78 177 92 80 130 82 132 133 172 44 136 132 128 127 126 126 131 136 139 137 144 147 146 141 139 137 134 129 126 125 123 122 121 120 116 112 110 110 109 108 110 112 113 115 115 114 114 113 113 114 116 116 114 115 114 109 112 108 102 98 95 90 83 86 87 83 77 71 65 61
344 297 123 82 103 356 88 194 170 114 217 215 247 269 271 274 288 295 291 290 297 302 279 153 103 349 39 107 272 122 210 92 125 136 116 95 120 125 125 124 125 125 127 132 131 133 139 144 147 145 142 140 137 134 131 129 127 124 123 122 121 117 115 112 113 113 114 113 115 116 117 117 118 117 117 117 114 115 114 114 116 111 103 90 92 91 86 79 76 77 73 70 71 66 65 66 61
333 33 351 89 137 191 49 49 291 225 215 169 265 274 280 282 285 287 286 283 294 283 283 167 155 161 17 325 50 313 126 159 154 93 123 137 133 129 127 125 123 121 125 126 130 134 141 144 143 143 143 141 139 136 133 131 128 126 125 123 122 119 115 115 116 117 117 117 116 119 120 119 120 119 120 120 120 118 117 111 104 107 109 108 105 102 96 87 79 71 70 67 60 55 49 51 53
357 15 358 23 351 59 175 168 207 222 251 190 243 268 272 279 279 286 285 294 303 282 34 113 106 101 79 244 13 21 29 113 106 129 128 134 129 130 131 125 120 118 122 126 129 134 140 136 140 142 142 141 139 136 134 131 129 128 126 125 123 120 116 117 120 120 119 119 120 121 121 121 122 122 122 122 120 118 118 120 119 111 114 114 112 106 93 83 78 70 62 61 60 46 42 29 37
237 91 294 111 248 66 237 206 216 180 265 202 219 243 267 272 277 280 277 271 294 267 94 147 156 96 255 11 151 291 30 50 104 115 122 129 131 130 126 124 117 116 120 124 127 133 138 132 138 142 143 141 138 136 133 131 131 129 128 127 123 120 118 119 121 120 120 120 122 122 121 122 121 124 124 124 123 121 119 121 122 123 100 87 82 78 73 77 74 71 65 60 55 50 38 39 31
354 82 321 72 239 354 336 224 231 222 274 261 263 242 254 264 272 274 277 267 261 294 186 177 181 102 233 62 43 8 60 102 110 119 127 131 131 126 124 125 121 121 121 122 125 129 127 133 136 140 141 140 138 134 132 132 131 131 128 125 122 116 119 122 122 122 122 122 122 123 123 123 124 125 127 127 129 130 129 122 115 101 88 89 88 83 81 79 75 72 68 57 49 45 41 41 24
11 95 265 164 131 232 252 279 281 223 223 212 231 245 248 260 264 264 269 284 255 173 227 48 4 118 133 102 111 60 119 116 116 114 128 129 122 122 120 125 126 125 124 123 120 122 131 134 134 136 136 138 136 133 131 131 131 129 126 121 119 118 120 121 122 124 125 125 125 125 125 123 123 123 126 130 133 136 137 138 131 120 105 91 90 82 77 72 73 69 65 60 47 34 27 20 16
330 350 156 134 211 237 226 257 246 287 252 250 248 250 250 261 262 270 268 266 277 211 212 131 64 130 125 91 61 79 125 124 125 131 128 123 123 120 118 119 121 124 124 120 120 127 127 128 133 128 129 130 129 124 125 127 126 121 117 117 119 120 121 123 126 129 129 129 130 130 125 123 126 132 133 131 133 130 131 133 131 134 123 110 95 87 79 72 72 75 68 61 48 31 19 16 1
148 191 155 184 202 198 220 224 245 258 274 286 271 255 255 252 274 275 273 270 276 155 175 172 173 133 89 141 118 127 129 125 123 122 123 124 120 118 119 120 119 116 116 120 123 122 123 129 122 134 130 129 120 122 123 122 119 117 119 122 121 123 125 128 131 132 134 134 132 130 129 130 132 131 130 132 133 134 136 137 136 141 141 125 118 103 82 74 72 72 73 64 53 26 9 355 349
162 160 129 116 217 192 223 233 250 255 288 253 250 254 252 261 254 253 260 254 249 186 230 203 137 139 111 156 120 124 131 117 120 122 124 126 123 120 116 115 115 115 120 123 122 124 121 114 124 122 130 126 119 114 113 117 118 123 124 126 126 129 133 136 137 138 137 138 136 136 133 130 128 129 130 130 129 132 135 141 144 148 145 141 131 116 95 83 77 69 64 59 51 22 356 342 336
172 185 146 221 191 192 191 219 226 257 269 262 256 254 260 267 255 255 265 263 243 216 287 135 132 107 91 100 136 151 124 129 125 122 120 122 122 116 112 110 112 115 116 119 121 120 116 118 120 126 127 120 125 122 126 124 126 127 128 130 132 135 137 139 139 141 141 142 141 135 131 131 134 132 129 127 126 126 134 141 147 150 149 148 147 130 116 81 71 58 49 45 37 14 343 332 333
202 190 114 175 222 161 207 213 192 225 256 255 256 254 282 254 253 234 153 138 208 159 104 92 155 109 206 157 180 175 144 140 128 123 120 119 114 111 111 113 115 115 114 112 112 117 117 122 119 110 112 112 115 119 128 134 132 134 134 135 135 137 138 141 144 145 145 141 139 136 139 140 140 137 133 132 131 134 138 138 146 152 153 153 153 152 63 53 51 47 29 29 19 3 345 333 324
188 142 173 189 223 177 256 205 202 231 257 244 257 277 289 274 263 270 252 159 119 118 137 150 238 186 167 184 169 146 141 134 129 123 119 115 109 107 111 113 110 109 109 110 110 108 115 113 106 109 106 113 116 114 124 132 138 137 138 138 140 142 144 145 146 147 147 145 146 145 144 144 140 140 145 145 151 151 141 140 145 153 154 155 152 190 226 23 360 8 31 14 5 347 340 328 318
147 162 239 190 241 181 233 189 173 231 229 250 264 309 271 269 269 212 309 39 112 158 24 53 189 21 165 144 132 128 134 132 128 122 118 118 117 115 113 109 109 104 105 97 99 103 97 94 98 101 109 114 112 106 115 125 140 139 140 144 146 147 147 148 148 151 152 152 146 147 141 116 129 151 147 171 167 162 166 157 149 155 161 154 167 200 252 287 305 315 330 336 335 338 329 323 315
141 201 197 232 191 211 186 210 190 194 211 253 266 230 215 278 313 298 18 35 72 65 66 49 53 61 91 110 123 130 134 133 133 128 126 124 126 124 117 115 116 113 106 99 80 77 85 78 90 101 114 118 115 101 106 127 131 134 134 141 146 151 150 151 150 153 155 133 149 145 127 149 151 147 173 178 188 199 179 170 156 154 160 176 182 218 269 284 298 293 294 291 296 306 309 327 320
200 191 180 224 181 219 177 214 229 227 237 252 266 290 254 249 173 234 51 41 95 73 46 79 84 92 105 119 127 135 139 135 136 130 130 128 127 122 117 114 109 109 100 95 87 81 81 102 107 115 123 139 133 112 105 116 110 119 129 137 151 148 154 143 146 155 114 142 141 143 163 177 173 191 195 199 187 199 196 181 164 151 169 192 205 241 272 281 291 293 302 308 309 312 320 305 301
221 181 213 222 199 223 232 219 242 230 242 264 297 286 245 257 189 240 167 111 119 124 127 76 106 126 130 135 139 141 141 137 132 127 124 120 118 116 116 116 116 108 107 110 119 122 130 138 140 147 155 162 140 115 103 111 120 128 138 139 137 138 144 150 154 144 153 157 167 170 185 193 192 199 212 197 190 176 240 218 180 163 139 255 252 295 307 301 293 304 312 312 331 335 321 324 320
210 203 222 210 202 207 230 223 239 253 249 255 301 302 305 290 250 197 212 86 14 119 271 154 148 138 139 139 134 134 133 130 124 120 118 119 112 108 130 139 136 133 131 133 135 151 164 162 157 160 160 155 135 124 127 133 137 146 161 160 149 150 157 159 156 159 173 178 184 195 200 197 198 204 246 327 129 136 43 336 343 357 37 351 321 343 292 293 317 321 324 325 317 314 320 311 325
297 223 216 185 191 218 230 224 232 243 251 266 284 277 264 289 348 8 93 125 188 190 163 160 145 142 131 112 72 44 27 88 116 118 124 127 128 130 127 116 117 113 119 125 142 160 171 169 163 155 151 145 140 141 145 161 157 172 175 170 158 157 161 177 166 177 192 193 198 211 214 203 194 167 122 110 125 152 173 259 265 250 283 265 227 241 257 277 296 300 297 296 297 299 279 276 271
233 254 212 209 211 203 220 225 231 236 251 222 306 241 247 57 320 354 36 116 211 246 154 146 125 121 118 108 101 92 69 19 37 70 98 108 128 132 117 105 117 116 120 128 140 171 198 166 147 147 149 144 140 150 164 174 182 185 173 165 156 171 178 181 189 201 200 204 206 210 196 206 134 132 145 154 164 172 187 214 243 234 231 251 254 241 260 250 247 263 280 288 288 284 276 254 249
235 243 230 234 212 230 234 236 229 240 236 214 212 306 332 7 27 347 42 313 306 114 109 102 101 95 101 101 105 107 109 103 73 50 36 77 90 77 91 106 103 108 118 133 134 141 135 166 157 142 144 137 155 167 180 193 193 180 176 171 171 185 183 193 193 201 194 197 210 182 167 185 161 146 140 146 165 171 203 214 230 237 219 228 232 218 256 279 279 273 270 278 283 268 269 276 274
225 240 230 246 233 231 232 245 251 249 252 226 232 276 272 262 166 97 25 354 76 106 107 103 104 100 95 108 119 124 125 129 133 134 123 97 97 104 113 119 120 124 124 125 134 117 200 198 133 5 148 152 170 178 189 196 189 184 182 180 185 192 188 195 191 188 194 188 110 133 136 126 124 130 140 164 139 172 217 232 213 253 289 257 188 209 212 242 235 234 250 279 306 314 309 300 289
229 230 236 240 240 234 229 235 245 252 249 236 242 238 250 134 95 54 70 351 119 114 109 116 113 109 114 124 134 136 126 112 130 143 149 147 139 124 121 123 131 128 141 154 155 149 164 187 198 211 174 171 176 179 189 173 191 190 194 188 185 182 186 194 164 125 110 115 126 116 112 107 121 147 163 173 154 171 174 75 36 346 201 229 169 178 202 176 177 187 208 209 222 246 276 288 317
147 224 234 235 240 243 235 224 231 241 244 211 215 230 218 201 116 231 195 159 135 114 116 120 120 119 127 136 129 125 130 137 136 138 129 141 142 139 140 141 141 143 150 152 151 153 166 173 197 199 182 174 166 179 181 187 188 188 190 185 163 143 139 122 105 105 102 97 97 90 88 98 119 134 129 116 94 85 38 16 355 327 334 333 345 339 166 155 151 125 101 329 336 328 311 303 320
256 219 229 240 244 243 246 236 233 198 258 203 203 223 213 206 127 175 168 163 156 130 129 117 112 121 127 134 131 130 124 128 130 141 143 151 153 149 149 150 148 154 154 156 159 164 162 173 181 182 174 161 150 153 148 141 148 150 150 121 129 132 122 109 110 110 107 97 89 81 82 80 84 81 88 75 87 62 42 18 348 343 328 330 330 302 344 56 67 105 102 290 273 277 302 311 302
240 238 251 238 236 242 238 237 239 197 244 189 194 206 223 248 186 163 148 146 168 139 127 118 117 120 125 130 124 109 109 108 95 71 121 138 145 152 151 157 151 154 155 157 164 161 163 160 163 158 144 141 137 140 142 137 130 129 126 121 121 124 124 129 121 117 106 91 88 88 86 85 73 72 55 70 67 66 48 21 358 327 304 303 327 33 77 24 43 17 17 15 2 13 356 337 336
254 224 224 249 248 243 237 230 233 202 223 184 138 233 241 293 152 141 147 144 141 125 119 113 114 120 122 123 115 102 106 116 137 163 172 160 161 158 152 170 152 147 152 165 160 163 162 154 149 139 151 131 131 135 137 132 130 127 124 123 120 114 117 114 110 107 104 100 94 90 94 91 83 61 59 48 62 70 51 32 358 332 320 310 320 50 40 16 13 15 355 5 1 6 348 325 339
242 249 175 211 215 236 236 214 218 215 194 171 168 213 267 111 167 147 146 154 145 130 126 122 124 120 115 113 117 115 113 121 143 152 163 161 159 160 154 163 150 147 154 167 169 163 153 145 141 144 145 131 132 139 134 127 127 124 120 111 114 116 109 96 97 101 96 92 91 89 100 100 82 68 60 71 71 50 42 27 10 331 291 260 43 53 58 29 24 24 18 16 357 358 347 329 342
254 187 226 208 192 287 234 221 209 203 237 159 151 210 234 184 180 169 151 158 138 123 127 130 129 120 124 129 127 118 119 120 126 130 152 161 157 154 157 160 155 159 164 168 162 156 144 142 147 143 142 135 137 139 133 127 122 120 118 126 122 114 107 100 99 101 97 90 96 100 87 81 78 67 65 73 69 53 45 48 353 319 331 38 56 48 56 46 29 33 31 49 21 352 350 338 341
222 200 238 212 160 237 252 222 210 203 182 178 177 203 92 167 199 174 149 139 138 123 129 131 127 119 125 135 132 118 116 116 121 132 144 153 157 154 160 163 168 167 164 165 163 151 148 154 147 143 140 133 132 134 127 119 119 116 120 117 110 106 103 104 99 99 89 96 107 82 64 72 79 76 71 53 63 35 26 39 337 302 338 61 60 62 66 66 53 41 25 24 44 354 348 337 335
265 162 209 206 172 182 218 285 225 201 186 210 168 124 216 175 167 170 160 145 133 127 133 133 129 120 127 135 129 121 120 124 132 139 134 121 108 100 93 131 102 102 151 168 162 157 156 151 139 133 129 131 137 137 127 116 112 113 110 106 107 97 94 98 108 108 96 96 84 77 76 70 72 62 62 66 54 43 26 321 360 28 43 69 78 80 78 63 56 51 30 15 17 17 356 349 334
190 162 167 240 171 180 191 176 238 160 191 197 193 142 151 154 161 167 156 157 139 143 146 144 138 134 138 137 134 127 129 130 133 134 133 122 106 91 95 99 95 87 30 33 46 65 81 96 103 115 117 123 128 124 114 110 111 101 92 97 92 87 81 81 93 85 89 89 84 87 72 63 66 54 55 70 64 42 18 0 19 10 38 53 72 72 49 41 45 44 46 10 7 19 26 357 334
161 160 180 189 179 207 194 202 243 177 169 198 172 164 137 152 155 147 146 160 139 132 127 128 131 134 139 141 135 134 134 130 132 132 130 118 110 117 115 121 114 95 88 101 84 69 88 89 101 109 117 118 109 105 112 113 113 118 115 98 88 94 102 108 83 82 68 76 78 78 72 62 57 47 45 65 64 61 30 1 17 26 34 73 65 53 43 40 36 32 28 25 14 19 30 9 359
224 183 187 207 195 227 214 206 202 167 150 201 187 151 152 161 168 167 159 138 126 135 137 138 143 144 147 146 139 131 127 129 134 134 132 126 121 121 130 130 117 103 102 108 102 102 103 110 112 107 120 126 128 132 133 135 128 118 105 116 125 136 132 112 88 69 68 55 62 65 67 69 62 50 44 60 53 56 54 45 49 46 54 64 62 55 51 48 40 39 32 35 30 32 22 6 3
257 244 217 223 191 208 222 202 208 180 148 229 149 146 163 167 169 164 151 147 153 150 145 147 147 149 150 147 142 138 130 128 137 140 139 131 131 127 126 131 138 138 127 116 122 128 119 118 114 119 125 135 144 145 138 134 140 145 140 144 135 132 127 112 94 72 66 54 50 67 66 59 58 62 67 69 66 60 59 55 53 53 55 59 63 57 52 46 39 35 25 30 25 43 38 9 2
254 231 227 250 236 185 256 236 221 205 153 213 142 149 172 172 165 159 161 163 163 165 161 157 152 153 151 149 146 143 142 145 148 147 145 142 135 125 128 137 141 126 127 136 139 139 140 133 128 131 143 149 141 127 125 135 121 117 123 135 136 113 62 79 94 90 90 74 55 63 71 67 70 62 61 63 65 60 66 71 65 59 56 55 56 49 44 43 34 37 34 39 7 21 37 15 14
235 233 199 218 237 171 221 243 232 183 168 184 157 144 145 82 86 128 144 135 140 124 123 138 151 154 156 159 156 150 149 149 150 151 144 139 141 137 136 143 141 137 139 142 152 153 148 141 133 132 144 143 134 133 115 102 105 98 94 105 88 80 116 93 75 64 60 70 66 64 59 58 58 60 57 63 64 60 64 68 64 56 52 50 58 57 46 43 34 34 34 34 38 35 18 3 12
234 215 192 204 230 248 169 222 238 163 214 102 100 73 52 140 135 141 122 119 125 128 128 137 148 147 147 147 153 153 150 149 143 144 144 146 148 149 152 147 142 151 154 154 151 150 143 129 115 130 143 146 134 127 128 125 111 97 96 85 87 90 75 81 88 72 74 82 80 64 63 59 57 59 56 55 57 54 52 54 55 52 51 44 49 53 49 42 43 41 39 43 41 53 28 5 5
243 233 197 207 214 245 263 235 205 126 201 210 138 41 207 197 175 143 137 123 133 149 146 156 155 149 152 162 159 153 147 149 146 147 156 160 152 147 148 144 152 154 148 136 115 112 121 112 113 125 133 132 131 130 138 132 132 132 129 126 124 115 118 116 112 115 101 85 82 78 62 58 63 63 57 57 56 55 50 50 55 55 49 42 43 50 47 42 35 40 36 48 39 27 69 43 20
213 240 173 207 216 218 244 302 108 173 180 243 181 160 214 124 217 265 156 147 147 155 158 162 157 156 161 164 163 159 153 149 149 148 153 152 151 152 150 152 154 148 141 128 113 116 115 112 119 131 136 135 133 132 130 126 120 126 126 126 126 131 128 114 104 99 101 96 87 75 70 60 56 62 57 56 54 55 54 49 52 55 54 48 41 45 46 43 43 43 37 44 40 35 44 59 35
229 128 153 189 208 229 239 183 246 236 258 216 201 187 150 169 228 217 220 152 156 157 163 163 162 164 167 165 168 164 161 158 155 151 154 154 155 160 155 154 153 151 141 131 125 125 124 125 125 126 131 132 132 128 119 128 131 131 119 116 125 130 129 128 121 109 99 95 82 75 72 61 55 57 60 52 49 50 51 49 48 49 50 44 47 50 54 48 51 41 42 40 40 40 49 66 53
215 165 166 186 190 219 227 180 227 244 217 258 220 111 90 205 179 175 204 144 177 162 164 169 168 171 166 163 171 168 163 163 159 156 160 156 156 157 156 153 146 136 137 131 127 121 119 122 123 123 127 129 133 124 117 121 131 135 130 131 124 124 123 122 115 107 102 97 88 75 70 64 58 54 53 54 48 47 50 53 49 49 47 41 46 52 51 51 52 46 35 36 37 41 42 54 60
237 224 158 182 196 212 155 200 217 252 218 229 220 186 137 168 135 148 222 211 204 175 178 174 173 175 166 168 172 168 163 165 165 162 160 152 146 148 150 136 131 130 121 122 121 122 124 126 130 126 124 129 139 124 122 127 132 130 130 137 127 125 123 117 113 112 105 95 87 77 73 67 61 56 47 47 50 48 52 51 53 51 47 45 50 53 55 51 44 44 40 46 50 56 45 54 61
325 243 215 238 283 277 219 200 184 101 228 232 202 205 135 162 189 177 168 191 186 171 175 182 178 173 170 173 172 169 166 164 163 159 151 145 139 139 137 133 125 125 127 130 132 132 133 125 125 124 129 132 129 132 133 137 132 128 127 130 130 132 131 125 118 107 100 87 88 81 77 77 69 62 53 50 54 52 52 52 52 51 49 47 48 51 53 53 45 43 42 49 50 55 53 53 48
210 238 190 156 294 15 321 280 107 211 245 242 194 191 170 160 211 207 210 190 174 165 177 183 182 179 170 172 173 169 163 160 156 154 150 145 139 135 129 127 130 130 131 131 128 123 116 116 118 107 99 107 114 120 122 126 125 118 120 126 127 131 132 127 119 112 105 102 98 96 92 85 70 62 53 55 48 51 54 49 45 43 42 43 46 49 51 49 46 44 47 53 52 51 51 53 47
213 243 125 148 246 131 260 224 228 213 209 243 181 164 189 212 179 185 201 186 181 185 179 182 176 169 169 170 165 164 160 153 153 154 153 149 142 137 137 135 131 136 135 131 123 116 113 114 113 108 99 98 102 109 110 110 107 108 110 109 104 99 95 103 108 107 109 106 109 107 101 88 68 59 56 66 54 54 55 49 44 42 41 42 51 52 48 48 49 53 57 58 57 53 48 46 43
204 210 166 158 168 165 207 229 204 293 271 255 157 178 223 203 255 186 184 187 186 193 192 175 164 168 167 164 159 155 156 155 156 157 151 150 145 143 139 136 136 137 134 127 120 116 113 109 106 105 101 93 98 98 103 99 96 97 98 100 101 102 99 98 101 107 107 108 111 107 100 92 82 82 83 72 68 64 57 59 57 53 52 52 56 57 53 48 51 57 55 57 52 45 47 48 51
209 186 131 171 145 170 202 196 196 204 205 238 195 142 222 132 230 184 190 185 184 187 171 163 158 158 160 155 152 150 152 156 153 152 151 150 144 143 141 140 140 138 130 122 118 114 113 108 108 108 103 94 93 96 98 99 100 99 99 99 99 100 101 99 100 105 112 114 110 106 100 93 87 84 86 83 73 70 62 56 54 54 49 52 53 53 50 47 48 50 46 49 50 49 54 59 58
202 166 116 130 209 137 204 197 154 208 189 71 177 178 189 142 293 208 177 155 151 140 140 142 146 161 162 153 156 157 156 153 155 152 146 144 142 143 142 142 141 134 128 123 122 122 115 113 109 102 103 101 99 95 92 98 98 101 102 102 101 101 102 102 103 105 107 111 115 110 100 86 87 89 83 82 68 72 65 60 55 52 51 50 51 54 52 50 46 53 50 50 53 52 64 64 63
193 150 208 211 149 121 112 357 244 96 73 210 209 5 37 330 35 68 115 129 137 141 148 155 156 167 163 157 157 159 156 153 154 158 149 147 146 146 146 144 139 133 131 128 126 123 121 117 112 104 97 94 95 98 100 98 102 102 100 102 104 102 105 107 111 114 114 113 110 101 93 88 90 86 79 73 71 64 64 63 58 51 48 47 48 47 51 54 55 57 57 57 60 62 67 67 64
131 189 212 99 152 126 131 189 312 110 153 238 84 156 228 72 186 57 112 133 150 160 167 162 161 168 164 162 163 160 159 156 153 150 152 151 148 146 144 141 138 136 132 126 121 118 114 113 114 111 106 104 99 104 105 108 108 105 108 106 104 106 109 110 114 118 119 114 100 89 88 89 84 79 80 78 75 68 60 58 59 54 49 46 43 40 47 53 61 61 64 65 67 70 70 68 66
168 203 152 163 196 241 304 106 229 145 179 251 339 175 168 151 147 138 145 149 169 175 167 155 165 170 167 164 161 155 153 150 148 149 154 152 149 148 145 140 136 133 128 125 121 116 114 110 108 108 110 109 112 107 106 101 106 111 114 114 114 111 111 112 115 115 116 107 95 85 85 92 86 82 81 78 74 68 67 58 56 55 50 46 42 39 36 45 58 67 65 67 63 70 73 71 67
203 96 166 167 113 156 146 208 179 120 209 102 284 21 201 204 164 164 164 169 174 175 172 173 172 174 167 163 159 156 159 156 152 155 156 152 151 149 146 143 140 137 132 129 123 119 117 119 115 112 106 109 109 109 112 110 115 117 117 114 111 114 117 119 116 112 105 99 96 99 103 95 95 90 86 84 79 76 68 65 57 57 55 50 47 41 37 41 49 64 71 70 66 73 74 75 71
196 163 217 195 190 203 138 94 150 173 167 161 152 255 284 254 183 165 171 173 174 175 178 172 175 177 172 166 162 161 163 158 157 156 155 152 149 147 145 138 132 128 127 127 127 126 126 123 123 123 123 121 116 122 118 119 120 118 118 117 119 119 116 108 100 99 100 98 103 104 98 103 93 88 91 83 80 75 71 70 66 61 60 56 52 45 38 45 51 57 67 74 70 70 76 77 78
156 154 189 177 163 186 151 249 345 116 106 192 127 222 272 276 174 170 167 175 176 180 171 173 177 176 171 169 165 161 160 160 156 156 153 150 146 146 144 135 133 134 135 134 133 130 132 133 131 125 117 121 125 131 130 125 118 123 119 120 115 106 103 100 99 99 102 104 102 101 105 96 92 91 91 88 82 78 75 74 74 69 65 62 57 52 43 48 51 55 57 70 73 76 82 83 82